Location: Bremen
(53.0793°N, 8.8017°E)
Time: 04:59:25
(UTC+01:00)

Transit 2A - Visible Passes

Search period start: 30 November 2021 00:00
Search period end: 10 December 2021 00:00
Orbit: 591 x 967 km, 66.7° (Epoch: 29 November)

Date Brightness Start Highest point End Pass type
(mag) Time Alt. Az. Time Alt. Az. Time Alt. Az.
30 Nov 8.3 03:49:47 23° NNE 03:49:47 23° NNE 03:52:22 10° NE visible
30 Nov 7.8 05:30:16 23° NNW 05:31:28 24° N 05:36:33 10° NE visible
30 Nov 7.8 07:11:15 10° NW 07:16:43 29° NNE 07:22:11 10° E visible
01 Dec 8.7 03:16:33 17° NNE 03:16:33 17° NNE 03:18:06 10° NE visible
01 Dec 7.8 04:57:02 25° N 04:57:02 25° N 05:02:01 10° NE visible
01 Dec 7.9 06:37:31 12° NW 06:42:08 26° NNE 06:47:26 10° ENE visible
02 Dec 9.1 02:43:18 12° NE 02:43:18 12° NE 02:43:50 10° NE visible
02 Dec 8.0 04:23:47 24° N 04:23:47 24° N 04:27:34 10° NE visible
02 Dec 7.9 06:04:16 17° NNW 06:07:31 25° N 06:12:41 10° ENE visible
03 Dec 8.4 03:50:32 21° NNE 03:50:32 21° NNE 03:53:09 10° NE visible
03 Dec 7.9 05:31:01 21° NNW 05:32:54 24° N 05:37:59 10° ENE visible
03 Dec 7.5 07:12:00 10° NW 07:17:54 38° NNE 07:23:46 10° E visible
04 Dec 8.8 03:17:17 17° NNE 03:17:17 17° NNE 03:18:48 10° NE visible
04 Dec 7.9 04:57:46 23° N 04:58:16 24° N 05:03:19 10° NE visible
04 Dec 7.7 06:38:15 12° NW 06:43:24 33° NNE 06:49:05 10° E visible
05 Dec 9.1 02:44:02 12° NE 02:44:02 12° NE 02:44:29 10° NE visible
05 Dec 8.1 04:24:31 23° N 04:24:31 23° N 04:28:42 10° NE visible
05 Dec 7.8 06:05:01 17° NNW 06:08:51 29° NNE 06:14:21 10° E visible
06 Dec 8.4 03:51:17 20° NNE 03:51:17 20° NNE 03:54:10 10° NE visible
06 Dec 7.9 05:31:46 21° NNW 05:34:16 27° NNE 05:39:36 10° ENE visible
06 Dec 7.0 07:12:36 10° NW 07:18:55 54° NE 07:25:04 10° ESE visible
07 Dec 8.8 03:18:02 16° NNE 03:18:02 16° NNE 03:19:42 10° NE visible
07 Dec 7.9 04:58:31 24° N 04:59:40 25° N 05:04:52 10° ENE visible
07 Dec 7.3 06:39:01 13° NW 06:44:30 45° NE 06:50:32 10° ESE visible
08 Dec 9.1 02:44:49 12° NE 02:44:49 12° NE 02:45:18 10° NE visible
08 Dec 8.1 04:25:18 24° N 04:25:18 24° N 04:30:09 10° ENE visible
08 Dec 7.5 06:05:47 18° NNW 06:10:03 39° NNE 06:15:55 10° E visible
09 Dec 8.4 03:52:06 21° NNE 03:52:06 21° NNE 03:55:29 10° NE visible
09 Dec 7.7 05:32:35 23° NNW 05:35:32 34° NNE 05:41:14 10° E visible
09 Dec 6.6 07:13:12 10° NW 07:19:41 85° NE 07:25:54 10° SE visible
